Blacksburg, VA

10:15 AM EDT on May 29, 2017 (GMT -0400)
Virginia Tech

Weather History for KBCB - July, 2012

Change the Weather History Date:

Tuesday, July 24, 2012

  Actual Average Record
Temperature  
Mean Temperature 75 °F 71 °F  
Max Temperature 82 °F 82 °F 93 °F (2016)
Min Temperature 68 °F 60 °F 51 °F (1971)
Degree Days  
Heating Degree Days 0 0  
Month to date heating degree days 0 0  
Since 1 June heating degree days 43 38  
Since 1 July heating degree days 0 0  
Cooling Degree Days 10 6  
Month to date cooling degree days 234 150  
Year to date cooling degree days 416 298  
Since 1 June cooling degree days 351 269  
Growing Degree Days 26 (Base 50)    
Moisture  
Dew Point 71 °F    
Average Humidity 87    
Maximum Humidity 100    
Minimum Humidity 73    
Precipitation  
Precipitation 0.27 in 0.13 in 0.81 in (1963)
Month to date precipitation 2.31 3.30  
Year to date precipitation 23.30 24.64  
Snow  
Snow 0.00 in - - ()
Month to date snowfall 0.0  
Since 1 June snowfall 0.0  
Since 1 July snowfall 0.0  
Snow Depth 0.00 in    
Sea Level Pressure  
Sea Level Pressure 30.07 in    
Wind  
Wind Speed 5 mph (West)    
Max Wind Speed 15 mph    
Max Gust Speed 23 mph    
Visibility 10 miles    
Events Rain , Thunderstorm    
T = Trace of Precipitation, MM = Missing Value Source: NWS Daily Summary

Daily Weather History Graph

Daily Weather History Graph

Search for Another Location

Airport or City:

Trip Planner

Search our weather history database for the weather conditions in past years. The results will help you decide how hot, cold, wet, or windy it might be!

Date:

Astronomy

Jul. 24, 2012 Rise Set
Actual Time 6:20 AM EDT 8:35 PM EDT
Civil Twilight 5:50 AM EDT 9:04 PM EDT
Nautical Twilight 5:14 AM EDT 9:40 PM EDT
Astronomical Twilight 4:35 AM EDT 10:20 PM EDT
Moon 12:06 PM EDT (7/24) 11:33 PM EDT (7/24)
Length of Visible Light 15h 14m
Length of Day
14h 15m
Waxing Crescent, 31% of the Moon is Illuminated
Jul 24
Waxing Crescent
Jul 26
First Quarter
Aug 1
Full
Aug 9
Last Quarter
Aug 17
New

Hourly Weather History & Observations

Time (EDT) Temp. Heat Index Dew Point Humidity Pressure Visibility Wind Dir Wind Speed Gust Speed Precip Events Conditions
12:15 AM 71.6 °F - 71.6 °F 100% 30.15 in 10.0 mi Calm Calm - N/A   Clear
12:35 AM 73.4 °F - 73.4 °F 100% 30.15 in 10.0 mi Calm Calm - N/A   Clear
12:55 AM 71.6 °F - 71.6 °F 100% 30.15 in 10.0 mi Calm Calm - N/A   Clear
1:15 AM 71.6 °F - 71.6 °F 100% 30.14 in 10.0 mi Calm Calm - N/A   Clear
1:35 AM 71.6 °F - 71.6 °F 100% 30.14 in 7.0 mi Calm Calm - N/A   Clear
1:55 AM 71.6 °F - 71.6 °F 100% 30.14 in 7.0 mi Calm Calm - N/A   Clear
2:15 AM 71.6 °F - 71.6 °F 100% 30.13 in 5.0 mi Calm Calm - N/A   Clear
2:35 AM 71.6 °F - 71.6 °F 100% 30.12 in 5.0 mi Calm Calm - N/A   Clear
2:55 AM 69.8 °F - 69.8 °F 100% 30.12 in 5.0 mi Calm Calm - N/A   Clear
3:15 AM 69.8 °F - 69.8 °F 100% 30.12 in 7.0 mi Calm Calm - N/A   Clear
3:35 AM 71.6 °F - 71.6 °F 100% 30.11 in 7.0 mi Calm Calm - N/A   Clear
3:55 AM 71.6 °F - 71.6 °F 100% 30.12 in 10.0 mi Calm Calm - N/A   Clear
4:15 AM 73.4 °F - 73.4 °F 100% 30.11 in 10.0 mi West 3.5 mph - N/A   Clear
4:35 AM 73.4 °F - 73.4 °F 100% 30.11 in 10.0 mi West 3.5 mph - N/A   Clear
4:55 AM 73.4 °F - 73.4 °F 100% 30.11 in 10.0 mi West 3.5 mph - N/A   Clear
5:15 AM 73.4 °F - 73.4 °F 100% 30.11 in 10.0 mi WNW 4.6 mph - N/A   Clear
5:35 AM 73.4 °F - 73.4 °F 100% 30.10 in 10.0 mi West 3.5 mph - N/A   Scattered Clouds
5:55 AM 73.4 °F - 71.6 °F 94% 30.10 in 10.0 mi West 3.5 mph - N/A   Scattered Clouds
6:15 AM 71.6 °F - 71.6 °F 100% 30.10 in 7.0 mi Calm Calm - N/A   Scattered Clouds
6:35 AM 73.4 °F - 71.6 °F 94% 30.10 in 7.0 mi Calm Calm - N/A   Scattered Clouds
6:55 AM 73.4 °F - 73.4 °F 100% 30.10 in 7.0 mi Calm Calm - N/A   Scattered Clouds
7:15 AM 75.2 °F - 73.4 °F 94% 30.10 in 10.0 mi Calm Calm - N/A   Mostly Cloudy
7:35 AM 77.0 °F - 73.4 °F 89% 30.10 in 10.0 mi Calm Calm - N/A   Mostly Cloudy
7:55 AM 77.0 °F - 73.4 °F 89% 30.11 in 10.0 mi SW 3.5 mph - N/A   Mostly Cloudy
8:15 AM 77.0 °F - 73.4 °F 89% 30.11 in 10.0 mi SSW 4.6 mph - N/A   Overcast
8:35 AM 78.8 °F - 75.2 °F 89% 30.10 in 10.0 mi SW 3.5 mph - N/A   Scattered Clouds
8:55 AM 80.6 °F 86.2 °F 75.2 °F 84% 30.10 in 10.0 mi West 3.5 mph - N/A   Clear
9:15 AM 78.8 °F - 75.2 °F 89% 30.09 in 7.0 mi West 6.9 mph - N/A   Clear
9:35 AM 80.6 °F 86.2 °F 75.2 °F 84% 30.08 in 10.0 mi WNW 3.5 mph - N/A   Scattered Clouds
9:55 AM 82.4 °F 89.5 °F 75.2 °F 79% 30.07 in 10.0 mi West 5.8 mph - N/A   Clear
10:15 AM 84.2 °F 92.3 °F 75.2 °F 74% 30.07 in 10.0 mi WNW 10.4 mph 18.4 mph N/A   Clear
10:35 AM 80.6 °F 85.4 °F 73.4 °F 79% 30.07 in 10.0 mi WNW 11.5 mph 17.3 mph N/A Thunderstorm Clear
10:55 AM 80.6 °F 85.4 °F 73.4 °F 79% 30.09 in 10.0 mi WNW 12.7 mph 23.0 mph N/A Thunderstorm Thunderstorm
11:15 AM 78.8 °F - 73.4 °F 83% 30.10 in 10.0 mi WNW 12.7 mph 16.1 mph N/A Thunderstorm Mostly Cloudy
11:35 AM 78.8 °F - 73.4 °F 83% 30.08 in 10.0 mi WNW 11.5 mph 16.1 mph N/A Thunderstorm Scattered Clouds
11:55 AM 78.8 °F - 73.4 °F 83% 30.08 in 10.0 mi WNW 6.9 mph - N/A   Scattered Clouds
12:15 PM 78.8 °F - 73.4 °F 83% 30.06 in 10.0 mi WNW 10.4 mph 17.3 mph N/A Rain , Thunderstorm Light Thunderstorms and Rain
12:35 PM 78.8 °F - 71.6 °F 78% 30.06 in 10.0 mi WNW 11.5 mph 21.9 mph N/A Rain Light Rain
12:55 PM 77.0 °F - 71.6 °F 83% 30.06 in 10.0 mi WNW 12.7 mph 21.9 mph N/A Rain , Thunderstorm Light Thunderstorms and Rain
1:15 PM 77.0 °F - 71.6 °F 83% 30.10 in 10.0 mi WNW 12.7 mph 23.0 mph N/A Rain , Thunderstorm Thunderstorms and Rain
1:35 PM 73.4 °F - 73.4 °F 100% 30.11 in 10.0 mi West 6.9 mph - 0.17 in Rain , Thunderstorm Light Thunderstorms and Rain
1:55 PM 71.6 °F - 71.6 °F 100% 30.11 in 10.0 mi WSW 9.2 mph - 0.22 in Thunderstorm Overcast
2:15 PM 73.4 °F - 73.4 °F 100% 30.11 in 10.0 mi WSW 9.2 mph - 0.01 in Thunderstorm Scattered Clouds
2:35 PM 73.4 °F - 73.4 °F 100% 30.09 in 10.0 mi SW 10.4 mph 18.4 mph 0.01 in   Scattered Clouds
2:55 PM 73.4 °F - 73.4 °F 100% 30.08 in 10.0 mi WSW 8.1 mph - 0.01 in   Clear
3:15 PM 73.4 °F - 71.6 °F 94% 30.07 in 10.0 mi West 9.2 mph - N/A   Clear
3:35 PM 75.2 °F - 73.4 °F 94% 30.06 in 10.0 mi WSW 9.2 mph 16.1 mph N/A Rain Light Rain
3:55 PM 75.2 °F - 71.6 °F 89% 30.05 in 10.0 mi West 9.2 mph - N/A   Scattered Clouds
4:15 PM 75.2 °F - 71.6 °F 89% 30.02 in 10.0 mi WSW 9.2 mph - N/A   Clear
4:35 PM 75.2 °F - 71.6 °F 89% 30.00 in 10.0 mi West 8.1 mph 17.3 mph N/A   Clear
4:55 PM 75.2 °F - 68.0 °F 78% 30.00 in 10.0 mi WNW 15.0 mph 23.0 mph N/A Rain Light Rain
5:15 PM 73.4 °F - 66.2 °F 78% 30.01 in 10.0 mi WNW 18.4 mph 27.6 mph N/A   Light Drizzle
5:35 PM 71.6 °F - 68.0 °F 88% 29.99 in 10.0 mi WNW 9.2 mph 18.4 mph N/A   Light Drizzle
5:55 PM 71.6 °F - 68.0 °F 88% 29.97 in 10.0 mi West 8.1 mph - N/A Rain Light Rain
6:15 PM 73.4 °F - 66.2 °F 78% 29.96 in 10.0 mi West 6.9 mph - N/A   Clear
6:35 PM 73.4 °F - 66.2 °F 78% 29.97 in 10.0 mi West 9.2 mph - N/A   Clear
6:55 PM 73.4 °F - 66.2 °F 78% 29.97 in 10.0 mi WNW 4.6 mph - N/A   Clear
7:15 PM 73.4 °F - 66.2 °F 78% 29.98 in 10.0 mi West 5.8 mph - N/A   Clear
7:35 PM 73.4 °F - 66.2 °F 78% 29.98 in 10.0 mi WNW 5.8 mph - N/A   Clear
7:55 PM 73.4 °F - 66.2 °F 78% 29.99 in 10.0 mi WNW 3.5 mph - N/A   Clear
8:15 PM 71.6 °F - 66.2 °F 83% 29.99 in 10.0 mi Calm Calm - N/A   Clear
8:35 PM 71.6 °F - 66.2 °F 83% 30.00 in 10.0 mi SW 3.5 mph - N/A   Clear
8:55 PM 71.6 °F - 66.2 °F 83% 30.00 in 10.0 mi WSW 4.6 mph - N/A   Clear
9:15 PM 71.6 °F - 66.2 °F 83% 30.01 in 10.0 mi West 3.5 mph - N/A   Clear
9:35 PM 69.8 °F - 66.2 °F 88% 30.01 in 10.0 mi West 3.5 mph - N/A   Clear
9:55 PM 71.6 °F - 66.2 °F 83% 30.01 in 10.0 mi West 5.8 mph - N/A   Clear
10:15 PM 71.6 °F - 66.2 °F 83% 30.02 in 10.0 mi West 5.8 mph - N/A   Clear
10:55 PM 71.6 °F - 66.2 °F 83% 30.02 in 10.0 mi WNW 3.5 mph - N/A   Clear
11:15 PM 73.4 °F - 64.4 °F 73% 30.01 in 10.0 mi WNW 5.8 mph - N/A   Clear
11:35 PM 73.4 °F - 64.4 °F 73% 30.01 in 10.0 mi WNW 4.6 mph - N/A   Clear
11:55 PM 73.4 °F - 64.4 °F 73% 30.01 in 10.0 mi WNW 6.9 mph - N/A   Clear